sat.trackr.live / text

‹ back to catalog

STARLINK-34756

NORAD 64849 · 2025-152H

PAYLOAD ACTIVE UNKNOWN

§ Identity

Operator
Country
US
Launch date
2025-07-19
Launch site
AFWTR
Launch vehicle
Mass (kg)
RCS (m²)

Purposes: comms

External: N2YO · Heavens-Above · Gunter

§ Orbital elements

Epoch: 2026-05-25T02:08:30.100128Z

Period
95.64 min
Inclination
97.4530°
Eccentricity
0.0001618
Mean motion
15.05660964 rev/d
Perigee alt
548.4 km
Apogee alt
550.6 km
Semi-major
6,927.6 km
B*
1.9266e-4
RAAN
0.4543°
Arg perigee
80.7186°
Mean anomaly
279.4224°
Rev number
4,691

§ Raw data

STARLINK-347561 64849U 25152H   26145.08923727  .00002723  00000+0  19266-3 0  99922 64849  97.4530   0.4543 0001618  80.7186 279.4224 15.05660964 46915

JSON: /api/v1/satellites/64849 · /tle

For live sub-satellite position, see the globe view (requires WebGL).

§ Visibility from observer

Set your observer location to see the next 7 days of passes ≥ 10°. The values pass through the URL so the page stays shareable.

No JS? Fill the form by hand. The geolocation button needs JavaScript.